Location: Old Broadwell Mill Observatory
(33.8015°N, 85.8137°W)
Time: 11:46:26
(UTC-05:00)

Amateur Radio Satellites - All Passes

Search period start: 25 October 2014 11:16
Search period end: 26 October 2014 11:16
Location: Old Broadwell Mill Observatory, 33.8015°N, 85.8137°W

Satellite Date Start Highest point End Downlink Frequencies (MHz)
Time Altitude Azimuth
ISS 25 Oct 11:19:31 11:22:22 27° 130° (SE) 11:25:14 145.800 FM
Oscar 10/S400 25 Oct 11:32:21 11:56:52 33° 153° (SSE) 12:13:07 145.825 - 145.975 CW/USB, Beacon 145.810 USB
PANSAT 25 Oct 11:43:53 11:46:04 15° 201° (SSW) 11:48:14 not established
ZACube-1 25 Oct 11:43:57 11:47:34 28° 289° (WNW) 11:51:08 437.345 MHz
UKube-1 25 Oct 11:50:31 11:51:24 11° 295° (WNW) 11:52:18 145.840 MHz, 145.915 MHz
SO-50 25 Oct 11:52:19 11:56:12 31° 112° (ESE) 12:00:12 436.795 FM
KITSAT 1 25 Oct 11:52:57 12:01:00 79° 114° (ESE) 12:09:06 435.175 FM
PCSat 25 Oct 11:55:30 11:58:45 16° 50° (NE) 12:01:58 145.825 MHz
Oscar 16 25 Oct 12:19:19 12:22:18 16° 65° (ENE) 12:25:17 437.025 USB, Beacon 2401.1428
Uribyol 2 25 Oct 12:42:45 12:43:12 10° 62° (ENE) 12:43:38 436.500 FM
ITAMSAT 1 25 Oct 12:47:59 12:49:21 11° 62° (ENE) 12:50:43 435.822 SSB
ISS 25 Oct 12:56:15 12:59:01 24° 325° (NW) 13:01:48 145.800 FM
Oscar 19 25 Oct 13:10:19 13:15:17 50° 73° (ENE) 13:20:15 437.125 CW, 437.150 USB
UOSAT-12 25 Oct 13:13:33 13:16:42 18° 109° (ESE) 13:19:54 437.025 FM, 437.400 FM
Sapphire 25 Oct 13:14:44 13:20:10 70° 63° (ENE) 13:25:33 437.095 MHz 1200 baud AX-25 AFSK
JAS-1B 25 Oct 13:28:01 13:34:02 63° 74° (ENE) 13:39:38 435.800 - 435.900 CW/SSB
AO-27 25 Oct 13:30:09 13:34:41 31° 70° (ENE) 13:39:15 436.795 MHz FM
SO-50 25 Oct 13:33:08 13:36:44 23° 308° (NW) 13:40:27 436.795 FM
PCSat 25 Oct 13:37:15 13:42:38 67° 247° (WSW) 13:47:58 145.825 MHz
AO-Echo 25 Oct 13:46:07 13:50:51 56° 74° (ENE) 13:55:46 ?
KITSAT 1 25 Oct 13:51:12 13:57:13 22° 314° (NW) 14:03:16 435.175 FM
Oscar 16 25 Oct 13:56:08 14:01:10 53° 260° (W) 14:06:13 437.025 USB, Beacon 2401.1428
Uribyol 2 25 Oct 14:16:40 14:21:53 84° 257° (WSW) 14:27:09 436.500 FM
ITAMSAT 1 25 Oct 14:22:55 14:28:06 78° 257° (WSW) 14:33:21 435.822 SSB
Gurwin Techsat 1B 25 Oct 14:46:45 14:52:03 90° 76° (ENE) 14:57:23 435.225 FM
Oscar 19 25 Oct 14:51:53 14:54:51 15° 267° (W) 14:57:49 437.125 CW, 437.150 USB
UOSAT-12 25 Oct 14:52:11 14:56:30 39° 304° (NW) 15:00:55 437.025 FM, 437.400 FM
TMSAT-1 25 Oct 14:57:31 15:02:49 84° 76° (ENE) 15:08:08 436.925 FM
Sapphire 25 Oct 15:00:53 15:02:54 12° 257° (WSW) 15:04:54 437.095 MHz 1200 baud AX-25 AFSK
AO-27 25 Oct 15:09:52 15:14:08 26° 264° (W) 15:18:27 436.795 MHz FM
AO-7 25 Oct 15:16:30 15:23:59 40° 64° (ENE) 15:31:28 29.400 - 29.500 MHz
JAS-1B 25 Oct 15:22:32 15:25:03 13° 266° (W) 15:27:29 435.800 - 435.900 CW/SSB
AO-Echo 25 Oct 15:27:58 15:29:59 12° 269° (W) 15:32:00 ?
Uosat F 25 Oct 15:32:36 15:36:34 24° 68° (ENE) 15:40:33 435.120 FM
AO-40 25 Oct 15:57:49 22:56:26 49° 183° (S) 05:03:06 Beacon 2401.320
JAS-2 25 Oct 16:08:25 16:11:55 16° 60° (ENE) 16:15:38 435.800 - 435.900 CW/SSB, 435.910 FM
Saudisat 1A 25 Oct 16:19:21 16:23:39 50° 58° (ENE) 16:27:56 436.775 MHz
AO-7 25 Oct 17:09:02 17:16:37 40° 260° (W) 17:24:16 29.400 - 29.500 MHz
Uosat F 25 Oct 17:10:42 17:15:08 32° 262° (W) 17:19:37 435.120 FM
OPAL 25 Oct 17:20:15 17:24:33 29° 99° (E) 17:28:48 ?
Hamsat 25 Oct 17:49:18 17:53:31 85° 77° (ENE) 17:57:43 145.90 MHz
JAS-2 25 Oct 17:50:18 17:56:03 70° 259° (W) 18:02:37 435.800 - 435.900 CW/SSB, 435.910 FM
Saudisat 1A 25 Oct 18:00:49 18:02:44 13° 252° (WSW) 18:04:40 436.775 MHz
SO-67 25 Oct 18:28:55 18:31:37 22° 73° (ENE) 18:34:19 435.3500 MHz FM
OPAL 25 Oct 18:59:14 19:03:17 26° 293° (WNW) 19:07:18 ?
HO-68 25 Oct 19:02:05 19:03:34 11° 55° (NE) 19:05:03 435.675 MHz FM
STRAND 1 25 Oct 19:05:40 19:10:31 41° 99° (E) 19:15:20 ?
ISS 25 Oct 19:27:16 19:30:36 64° 42° (NE) 19:33:53 145.800 FM
KITSAT 1 25 Oct 19:51:44 19:57:32 21° 45° (NE) 20:03:16 435.175 FM
SO-67 25 Oct 20:02:32 20:04:32 15° 266° (W) 20:06:32 435.3500 MHz FM
RS-15 25 Oct 20:03:36 20:10:17 18° 101° (E) 20:16:52 29.354 - 29.394 USB, Beacon 29.352 USB
SO-50 25 Oct 20:28:36 20:30:54 13° 47° (NE) 20:33:12 436.795 FM
HO-68 25 Oct 20:42:53 20:49:58 71° 72° (ENE) 20:57:07 435.675 MHz FM
STRAND 1 25 Oct 20:45:43 20:49:21 20° 293° (WNW) 20:53:00 ?
ZACube-1 25 Oct 21:02:50 21:04:05 11° 66° (ENE) 21:05:20 437.345 MHz
UKube-1 25 Oct 21:03:20 21:07:08 30° 71° (ENE) 21:10:57 145.840 MHz, 145.915 MHz
Oscar 11 25 Oct 21:43:22 21:47:42 83° 77° (ENE) 21:52:02 145.825 FM, Beacon 2401.500 USB
FUNcube-1 25 Oct 21:44:08 21:48:14 33° 72° (ENE) 21:52:17 145.950 - 145.970 MHz USB
KITSAT 1 25 Oct 21:45:45 21:53:52 85° 245° (WSW) 22:01:55 435.175 FM
SO-50 25 Oct 22:07:06 22:11:58 76° 243° (WSW) 22:16:51 436.795 FM
RS-15 25 Oct 22:10:02 22:21:08 88° 297° (WNW) 22:32:06 29.354 - 29.394 USB, Beacon 29.352 USB
HO-68 25 Oct 22:33:41 22:38:09 18° 267° (W) 22:42:39 435.675 MHz FM
ZACube-1 25 Oct 22:35:23 22:39:55 61° 259° (W) 22:44:26 437.345 MHz
UKube-1 25 Oct 22:40:15 22:43:18 19° 265° (W) 22:46:22 145.840 MHz, 145.915 MHz
MaSat-1 25 Oct 23:10:59 23:15:12 76° 112° (ESE) 23:19:04 437.345 MHz
FUNcube-1 25 Oct 23:21:21 23:24:36 19° 265° (W) 23:27:50 145.950 - 145.970 MHz USB
UOSAT-12 25 Oct 23:25:11 23:29:50 60° 59° (ENE) 23:34:23 437.025 FM, 437.400 FM
KITSAT 1 25 Oct 23:44:51 23:48:03 13° 260° (W) 23:51:15 435.175 FM
RS-15 26 Oct 00:26:47 00:35:06 24° 321° (NW) 00:43:29 29.354 - 29.394 USB, Beacon 29.352 USB
Oscar 10/S400 26 Oct 00:33:13 01:44:41 28° 241° (WSW) 05:16:07 145.825 - 145.975 CW/USB, Beacon 145.810 USB
UOSAT-12 26 Oct 01:07:47 01:09:23 12° 253° (WSW) 01:10:59 437.025 FM, 437.400 FM
JAS-1B 26 Oct 01:14:53 01:20:34 24° 97° (E) 01:26:57 435.800 - 435.900 CW/SSB
Oscar 19 26 Oct 01:26:29 01:30:36 24° 96° (E) 01:34:43 437.125 CW, 437.150 USB
AO-27 26 Oct 01:48:17 01:51:16 15° 93° (E) 01:54:13 436.795 MHz FM
AO-Echo 26 Oct 01:57:37 02:02:05 27° 96° (E) 02:06:30 ?
Oscar 16 26 Oct 02:11:40 02:16:48 75° 102° (ESE) 02:21:54 437.025 USB, Beacon 2401.1428
Sapphire 26 Oct 02:11:55 02:14:58 15° 104° (ESE) 02:18:01 437.095 MHz 1200 baud AX-25 AFSK
PCSat 26 Oct 02:32:36 02:37:08 28° 107° (ESE) 02:41:40 145.825 MHz
Uribyol 2 26 Oct 02:33:37 02:38:39 48° 100° (E) 02:43:37 436.500 FM
ITAMSAT 1 26 Oct 02:39:55 02:45:01 53° 100° (E) 02:50:05 435.822 SSB
JAS-1B 26 Oct 03:04:25 03:11:09 57° 287° (WNW) 03:19:12 435.800 - 435.900 CW/SSB
Oscar 19 26 Oct 03:05:25 03:09:54 32° 290° (WNW) 03:14:23 437.125 CW, 437.150 USB
Gurwin Techsat 1B 26 Oct 03:07:07 03:12:17 50° 100° (E) 03:17:24 435.225 FM
TMSAT-1 26 Oct 03:17:34 03:22:39 46° 99° (E) 03:27:43 436.925 FM
AO-7 26 Oct 03:24:47 03:28:48 14° 92° (E) 03:32:48 29.400 - 29.500 MHz
AO-27 26 Oct 03:25:57 03:31:01 52° 287° (WNW) 03:36:03 436.795 MHz FM
AO-Echo 26 Oct 03:36:06 03:40:45 32° 290° (WNW) 03:45:22 ?
Sapphire 26 Oct 03:52:32 03:57:50 56° 298° (WNW) 04:03:10 437.095 MHz 1200 baud AX-25 AFSK
Oscar 16 26 Oct 03:54:10 03:55:27 11° 297° (WNW) 03:56:45 437.025 USB, Beacon 2401.1428
Uribyol 2 26 Oct 04:14:21 04:17:40 17° 294° (WNW) 04:20:59 436.500 FM
PCSat 26 Oct 04:15:32 04:20:22 33° 303° (WNW) 04:25:15 145.825 MHz
ITAMSAT 1 26 Oct 04:20:54 04:24:01 16° 295° (WNW) 04:27:08 435.822 SSB
OPAL 26 Oct 04:31:16 04:35:55 36° 69° (ENE) 04:40:32 ?
Gurwin Techsat 1B 26 Oct 04:48:24 04:51:47 17° 294° (WNW) 04:55:10 435.225 FM
TMSAT-1 26 Oct 04:58:34 05:02:10 19° 294° (WNW) 05:05:45 436.925 FM
JAS-2 26 Oct 05:03:58 05:10:12 25° 93° (E) 05:16:17 435.800 - 435.900 CW/SSB, 435.910 FM
RS-15 26 Oct 05:04:56 05:12:49 21° 36° (NE) 05:20:50 29.354 - 29.394 USB, Beacon 29.352 USB
AO-7 26 Oct 05:14:02 05:22:24 89° 107° (ESE) 05:30:45 29.400 - 29.500 MHz
Uosat F 26 Oct 05:21:40 05:26:43 76° 285° (WNW) 05:31:44 435.120 FM
Hamsat 26 Oct 05:39:37 05:42:41 19° 95° (E) 05:45:45 145.90 MHz
OPAL 26 Oct 06:10:49 06:14:48 22° 262° (W) 06:18:46 ?
STRAND 1 26 Oct 06:17:47 06:22:32 40° 71° (ENE) 06:27:19 ?
PANSAT 26 Oct 06:18:20 06:21:19 21° 164° (SSE) 06:24:17 not established
Saudisat 1A 26 Oct 06:22:15 06:26:09 32° 113° (ESE) 06:30:04 436.775 MHz
JAS-2 26 Oct 06:47:48 06:55:28 60° 288° (WNW) 07:02:59 435.800 - 435.900 CW/SSB, 435.910 FM
AO-7 26 Oct 07:09:01 07:14:05 18° 304° (NW) 07:19:10 29.400 - 29.500 MHz
Hamsat 26 Oct 07:15:02 07:18:35 27° 288° (WNW) 07:22:08 145.90 MHz
RS-15 26 Oct 07:16:06 07:27:22 75° 60° (ENE) 07:39:08 29.354 - 29.394 USB, Beacon 29.352 USB
SO-67 26 Oct 07:27:58 07:31:17 44° 99° (E) 07:34:34 435.3500 MHz FM
PANSAT 26 Oct 07:57:32 08:01:04 36° 177° (S) 08:04:36 not established
STRAND 1 26 Oct 07:58:11 08:01:49 20° 265° (W) 08:05:29 ?
Saudisat 1A 26 Oct 08:02:22 08:05:44 21° 308° (NW) 08:09:07 436.775 MHz
HO-68 26 Oct 08:17:23 08:21:15 15° 92° (E) 08:25:06 435.675 MHz FM
MaSat-1 26 Oct 09:00:51 09:03:13 38° 65° (ENE) 09:05:27 437.345 MHz
RS-15 26 Oct 09:30:08 09:38:41 26° 257° (WSW) 09:47:34 29.354 - 29.394 USB, Beacon 29.352 USB
Oscar 11 26 Oct 09:35:46 09:38:56 20° 95° (E) 09:42:05 145.825 FM, Beacon 2401.500 USB
PANSAT 26 Oct 09:37:29 09:40:53 30° 189° (S) 09:44:16 not established
HO-68 26 Oct 10:02:20 10:09:32 79° 287° (WNW) 10:16:42 435.675 MHz FM
KITSAT 1 26 Oct 10:17:02 10:22:32 20° 103° (ESE) 10:28:01 435.175 FM
ZACube-1 26 Oct 10:29:01 10:32:50 32° 97° (E) 10:36:34 437.345 MHz
UKube-1 26 Oct 10:30:44 10:35:07 82° 284° (WNW) 10:39:28 145.840 MHz, 145.915 MHz
ISS 26 Oct 10:31:32 10:33:19 14° 127° (SE) 10:35:07 145.800 FM
